Weather History for Hickory, NC

Change the Weather History Date:

Thursday, January 2, 2014

  Actual Average Record
Temperature  
Mean Temperature 36 °F -  
Max Temperature 39 °F 48 °F 76 °F (1952)
Min Temperature 28 °F 31 °F 16 °F (1958)
Degree Days  
Heating Degree Days 30    
Moisture  
Dew Point 33 °F    
Average Humidity 86    
Maximum Humidity 96    
Minimum Humidity 49    
Precipitation  
Precipitation 0.17 in - - ()
Sea Level Pressure  
Sea Level Pressure 29.78 in    
Wind  
Wind Speed 2 mph (NW)    
Max Wind Speed 21 mph    
Max Gust Speed 33 mph    
Visibility 5 miles    
Events Rain    
Averages and records for this station are not official NWS values.
T = Trace of Precipitation, MM = Missing Value Source: NWS Daily Summary

Daily Weather History Graph

Daily Weather History Graph

Search for Another Location

Airport:

Trip Planner

Search our weather history database for the weather conditions in past years. The results will help you decide how hot, cold, wet, or windy it might be!

Date:

Astronomy

Jan. 02, 2014 Rise Set
Actual Time 7:35 AM EST 5:23 PM EST
Civil Twilight 7:07 AM EST 5:52 PM EST
Nautical Twilight 6:35 AM EST 6:23 PM EST
Astronomical Twilight 6:04 AM EST 6:55 PM EST
Moon 8:19 AM EST (1/2) 7:14 PM EST (1/2)
Length of Visible Light 10h 44m
Length of Day
9h 48m
New Moon, 2% of the Moon is Illuminated
Jan 2
New Moon
Jan 7
First Quarter
Jan 15
Full
Jan 24
Last Quarter
Jan 30
New

Hourly Weather History & Observations

Time (EST) Temp. Windchill Dew Point Humidity Pressure Visibility Wind Dir Wind Speed Gust Speed Precip Events Conditions
12:53 AM 36.0 °F - 28.0 °F 73% 30.10 in 10.0 mi Calm Calm - N/A   Clear
1:53 AM 35.1 °F - 28.9 °F 78% 30.07 in 10.0 mi Calm Calm - N/A   Clear
2:53 AM 34.0 °F - 28.9 °F 82% 30.04 in 10.0 mi Calm Calm - N/A   Clear
3:53 AM 33.1 °F - 28.9 °F 85% 30.01 in 10.0 mi Calm Calm - N/A   Partly Cloudy
4:53 AM 33.1 °F - 28.9 °F 85% 29.99 in 10.0 mi Calm Calm - N/A   Clear
5:53 AM 33.1 °F - 28.9 °F 85% 29.96 in 10.0 mi Calm Calm - N/A   Partly Cloudy
6:53 AM 33.1 °F 30.0 °F 28.9 °F 85% 29.94 in 10.0 mi NW 3.5 mph - N/A   Clear
7:53 AM 32.0 °F - 28.9 °F 88% 29.91 in 7.0 mi Calm Calm - N/A   Clear
8:36 AM 33.8 °F - 30.2 °F 87% 29.90 in 9.0 mi Calm Calm - N/A   Overcast
8:53 AM 34.0 °F - 30.0 °F 85% 29.90 in 9.0 mi Calm Calm - N/A   Mostly Cloudy
9:53 AM 37.0 °F - 30.0 °F 76% 29.88 in 10.0 mi Calm Calm - N/A   Overcast
10:53 AM 37.0 °F 34.5 °F 32.0 °F 82% 29.85 in 9.0 mi North 3.5 mph - N/A   Overcast
11:22 AM 37.4 °F 34.9 °F 32.0 °F 81% 29.85 in 1.8 mi NW 3.5 mph - 0.00 in Rain Light Rain
11:53 AM 36.0 °F - 34.0 °F 93% 29.80 in 1.5 mi Calm Calm - 0.04 in Rain Rain
12:05 PM 37.4 °F 34.9 °F 33.8 °F 87% 29.80 in 1.8 mi NNW 3.5 mph - 0.01 in Rain Light Rain
12:14 PM 37.4 °F 33.8 °F 33.8 °F 87% 29.79 in 1.5 mi NW 4.6 mph - 0.02 in Rain Light Rain
12:23 PM 37.4 °F 34.9 °F 35.6 °F 93% 29.78 in 2.0 mi NW 3.5 mph - 0.02 in Rain Light Rain
12:37 PM 37.4 °F - 35.6 °F 93% 29.76 in 3.0 mi Calm Calm - 0.03 in Rain Light Rain
12:53 PM 37.9 °F 34.4 °F 36.0 °F 93% 29.74 in 3.0 mi NNW 4.6 mph - 0.03 in Rain Light Rain
12:59 PM 37.4 °F 34.9 °F 35.6 °F 93% 29.75 in 2.5 mi NW 3.5 mph - 0.00 in Rain Light Rain
1:25 PM 37.4 °F - 35.6 °F 93% 29.73 in 3.0 mi Calm Calm - 0.01 in Rain Light Rain
1:53 PM 37.9 °F - 36.0 °F 93% 29.70 in 2.5 mi Calm Calm - 0.01 in Rain Light Rain
2:14 PM 39.2 °F - 35.6 °F 87% 29.69 in 1.2 mi Calm Calm - 0.01 in Rain Light Rain
2:36 PM 39.2 °F - 35.6 °F 87% 29.69 in 2.0 mi Calm Calm - 0.02 in Rain Light Rain
2:46 PM 39.2 °F - 35.6 °F 87% 29.68 in 1.5 mi Calm Calm - 0.03 in Rain Light Rain
2:53 PM 39.0 °F 36.8 °F 36.0 °F 89% 29.67 in 1.8 mi North 3.5 mph - 0.03 in Rain Light Rain
3:53 PM 39.0 °F 36.8 °F 37.0 °F 93% 29.65 in 1.8 mi NW 3.5 mph - 0.03 in Rain Light Rain
4:15 PM 39.2 °F 35.0 °F 37.4 °F 93% 29.67 in 1.2 mi NW 5.8 mph - 0.01 in Rain Light Rain
4:30 PM 39.2 °F 34.2 °F 37.4 °F 93% 29.68 in 2.0 mi WNW 6.9 mph - 0.01 in Rain Light Rain
4:42 PM 39.2 °F - 37.4 °F 93% 29.67 in 3.0 mi Calm Calm - 0.02 in Rain Light Rain
4:53 PM 39.0 °F - 37.9 °F 96% 29.64 in 4.0 mi Calm Calm - 0.02 in Rain Light Rain
5:04 PM 39.2 °F - 37.4 °F 93% 29.65 in 4.0 mi Calm Calm - 0.00 in Rain Light Rain
5:38 PM 39.2 °F 37.0 °F 37.4 °F 93% 29.64 in 2.0 mi North 3.5 mph - 0.00 in   Overcast
5:49 PM 39.2 °F - 37.4 °F 93% 29.66 in 3.0 mi Calm Calm - 0.00 in   Overcast
5:53 PM 39.0 °F - 37.9 °F 96% 29.65 in 3.0 mi Calm Calm - 0.00 in   Overcast
6:26 PM 39.2 °F 37.0 °F 37.4 °F 93% 29.65 in 3.0 mi West 3.5 mph - N/A   Overcast
6:53 PM 39.0 °F 35.7 °F 37.0 °F 93% 29.65 in 4.0 mi NW 4.6 mph - N/A   Mostly Cloudy
7:05 PM 39.2 °F 35.9 °F 37.4 °F 93% 29.66 in 4.0 mi NNW 4.6 mph - N/A   Scattered Clouds
7:53 PM 37.9 °F 32.7 °F 35.1 °F 89% 29.65 in 10.0 mi WNW 6.9 mph - 0.01 in   Clear
8:53 PM 37.9 °F 31.5 °F 32.0 °F 79% 29.68 in 10.0 mi West 9.2 mph - N/A   Partly Cloudy
9:53 PM 37.0 °F 31.6 °F 28.0 °F 70% 29.71 in 10.0 mi NW 6.9 mph - N/A   Partly Cloudy
10:53 PM 33.1 °F 22.6 °F 19.0 °F 56% 29.75 in 10.0 mi NNW 16.1 mph 27.6 mph N/A   Clear
11:53 PM 28.0 °F 14.6 °F 10.9 °F 49% 29.81 in 10.0 mi NW 20.7 mph 33.4 mph N/A   Partly Cloudy